Location: Briis
(48.6240°N, 2.1211°E)
Time: 10:11:17
(UTC+00:00)

IRIDIUM 103 - Pass Details

Date: 25 September 2020
Orbit: 776 x 779 km, 86.4° (Epoch: 25 October)

Event Time Altitude Azimuth Distance (km) Brightness Sun altitude
Rises 03:22:10 0° 355° (N) 3,273 7.9 -23.2°
Reaches altitude 10° 03:24:31 10° 355° (N) 2,340 7.1 -22.9°
Maximum altitude 03:29:46 85° 268° (W) 788 4.2 -22.1°
Enters shadow 03:33:32 19° 181° (S) 1,765 5.9 -21.6°
